Location: Unspecified
(0.0000°N, 0.0000°E)
Time: 19:36:18
(UTC+02:00)

Cosmos 1980 Rocket - Visible Passes

Search period start: 27 May 2018 00:00
Search period end: 06 June 2018 00:00
Orbit: 830 x 849 km, 71.0° (Epoch: 26 May)

Date Brightness Start Highest point End Pass type
(mag) Time Alt. Az. Time Alt. Az. Time Alt. Az.
27 May 2.9 21:59:49 10° N 22:03:45 44° NNE 22:03:45 44° NNE visible
28 May 2.3 21:44:11 10° N 21:49:14 55° NE 21:49:14 55° NE visible
29 May 2.3 21:28:33 10° N 21:34:03 52° ENE 21:34:47 48° E visible
30 May 2.5 21:12:56 10° N 21:18:22 47° ENE 21:20:23 34° SE visible
30 May 4.9 23:00:21 10° W 23:02:07 11° WSW 23:02:13 11° WSW visible
31 May 2.6 20:57:21 10° N 21:02:42 43° ENE 21:06:01 22° SE visible
31 May 4.8 22:44:03 10° W 22:46:25 13° WSW 22:47:52 12° WSW visible
01 Jun 2.7 20:41:45 10° N 20:47:01 39° ENE 20:51:43 13° SE visible
01 Jun 4.7 22:27:53 10° WNW 22:30:44 14° WSW 22:33:33 10° SW visible
02 Jun 2.8 20:26:11 10° N 20:31:20 36° ENE 20:36:30 10° SE visible
02 Jun 4.7 22:11:49 10° WNW 22:15:03 15° WSW 22:18:18 10° SW visible
03 Jun 4.7 21:55:49 10° WNW 21:59:22 17° WSW 22:02:56 10° SW visible
04 Jun 4.6 21:39:50 10° WNW 21:43:41 19° WSW 21:47:32 10° SSW visible
05 Jun 4.5 21:23:55 10° WNW 21:28:00 20° WSW 21:32:06 10° SSW visible
